Weather History for Setif, Algeria

Change the Weather History Date:

Thursday, February 14, 2013

  Actual Average Record
Temperature  
Mean Temperature 38 °F -  
Max Temperature 44 °F - - ()
Min Temperature 33 °F - - ()
Degree Days  
Heating Degree Days 26    
Moisture  
Dew Point 31 °F    
Average Humidity 74    
Maximum Humidity 93    
Minimum Humidity 46    
Precipitation  
Precipitation 0.02 in - - ()
Sea Level Pressure  
Sea Level Pressure 30.12 in    
Wind  
Wind Speed 11 mph ()    
Max Wind Speed 18 mph    
Max Gust Speed -    
Visibility 5.6 miles    
Events Rain , Snow    
T = Trace of Precipitation, MM = Missing Value Source: Averaged Metar Reports

Daily Weather History Graph

Daily Weather History Graph

Search for Another Location

Airport:

Trip Planner

Search our weather history database for the weather conditions in past years. The results will help you decide how hot, cold, wet, or windy it might be!

Date:

Astronomy

Feb. 14, 2013 Rise Set
Actual Time 7:27 AM CET 6:18 PM CET
Civil Twilight 7:00 AM CET 6:45 PM CET
Nautical Twilight 6:30 AM CET 7:15 PM CET
Astronomical Twilight 6:00 AM CET 7:45 PM CET
Moon 9:30 AM CET (2/14) 10:55 PM CET (2/14)
Length of Visible Light 11h 44m
Length of Day
10h 51m
Waxing Crescent, 19% of the Moon is Illuminated
Feb 14
Waxing Crescent
Feb 17
First Quarter
Feb 25
Full
Mar 4
Last Quarter
Mar 11
New

Hourly Weather History & Observations

Time (CET) Temp. Windchill Dew Point Humidity Pressure Visibility Wind Dir Wind Speed Gust Speed Precip Events Conditions
12:00 AM 35.6 °F 25.2 °F 30.2 °F 81% 30.04 in 3.7 mi NW 18.4 mph - N/A Snow Light Snow
1:00 AM 36 °F - 30 °F 70%  in 5 mi NW 16.1 mph - - Snow Light Snow
1:00 AM 35.6 °F 25.9 °F 30.2 °F 81% 30.04 in 5.0 mi NW 16.1 mph - N/A   Mostly Cloudy
2:00 AM 35.6 °F 25.9 °F 28.4 °F 75% 30.04 in 5.0 mi NW 16.1 mph - N/A   Mostly Cloudy
3:00 AM 35.6 °F 26.6 °F 28.4 °F 75% 30.04 in 5.0 mi WNW 13.8 mph - N/A   Partly Cloudy
4:00 AM 35 °F - 29 °F 71%  in 5 mi NW 13.8 mph - -   Scattered Clouds
4:00 AM 35.6 °F 26.6 °F 28.4 °F 75% 30.04 in 5.0 mi NW 13.8 mph - N/A   Partly Cloudy
5:00 AM 35.6 °F 25.9 °F 30.2 °F 81% 30.04 in 3.7 mi NW 16.1 mph - N/A Snow Light Snow
6:00 AM 33.8 °F 26.4 °F 32.0 °F 93% 30.06 in 3.7 mi SW 9.2 mph - N/A   Mostly Cloudy
7:00 AM 34 °F - 32 °F 87%  in 4 mi West 9.2 mph - - Rain Light Drizzle
7:00 AM 33.8 °F 26.4 °F 32.0 °F 93% 30.06 in 3.7 mi West 9.2 mph - N/A   Light Drizzle
8:00 AM 35.6 °F 28.6 °F 32.0 °F 87% 30.09 in 3.7 mi NW 9.2 mph - N/A   Partly Cloudy
9:00 AM 37.4 °F 32.1 °F 33.8 °F 87% 30.12 in 5.0 mi West 6.9 mph - N/A   Scattered Clouds
10:00 AM 39 °F - 33 °F 71%  in 6 mi WNW 10.4 mph - -   Partly Cloudy
10:00 AM 39.2 °F 32.5 °F 33.8 °F 81% 30.12 in 6.2 mi WNW 10.4 mph - N/A   Scattered Clouds
11:00 AM 41.0 °F 33.1 °F 30.2 °F 65% 30.15 in 6.2 mi NW 15.0 mph - N/A   Scattered Clouds
12:00 PM 42.8 °F 35.8 °F 30.2 °F 61% 30.15 in 6.2 mi NW 13.8 mph - N/A   Scattered Clouds
1:00 PM 44 °F - 30 °F 46%  in 9 mi NNW 11.5 mph - -   Partly Cloudy
1:00 PM 42.8 °F 36.6 °F 30.2 °F 61% 30.15 in 6.2 mi NNW 11.5 mph - N/A   Scattered Clouds
2:00 PM 42.8 °F 35.8 °F 30.2 °F 61% 30.15 in 6.2 mi NNW 13.8 mph - N/A   Scattered Clouds
3:00 PM 42.8 °F 36.6 °F 30.2 °F 61% 30.15 in 6.2 mi NNW 11.5 mph - N/A   Scattered Clouds
4:00 PM 43 °F - 31 °F 51%  in 9 mi NW 11.5 mph - -   Partly Cloudy
4:00 PM 42.8 °F 36.6 °F 30.2 °F 61% 30.15 in 6.2 mi NW 11.5 mph - N/A   Scattered Clouds
5:00 PM 42.8 °F 37.5 °F 32.0 °F 66% 30.15 in 6.2 mi WNW 9.2 mph - N/A   Scattered Clouds
6:00 PM 41.0 °F 36.4 °F 33.8 °F 76% 30.15 in 6.2 mi NW 6.9 mph - N/A   Scattered Clouds
7:00 PM 38 °F - 32 °F 72%  in 6 mi North 4.6 mph - -   Scattered Clouds
7:00 PM 37.4 °F 33.8 °F 32.0 °F 81% 30.18 in 6.2 mi North 4.6 mph - N/A   Partly Cloudy
8:00 PM 37.4 °F 33.8 °F 32.0 °F 81% 30.18 in 6.2 mi NNW 4.6 mph - N/A   Partly Cloudy
9:00 PM 37.4 °F 34.9 °F 32.0 °F 81% 30.18 in - NW 3.5 mph - N/A   Clear
10:00 PM 37 °F - 29 °F 62%  in 6 mi WSW 2.3 mph - -  
10:00 PM 37.4 °F - 28.4 °F 70% 30.18 in - WSW 2.3 mph - N/A   Clear
11:00 PM 33.8 °F - 32.0 °F 93% 30.18 in - West 2.3 mph - N/A   Clear